CW9461 Weather Reports


time (UTC)temp
F
wind
direction
speed
knots
gust
knots
rain 1hr
in
rain 24hr
in
rain mn
in
humidity
%
barometer
mb
20260901160605 67 249 1.7 7.0 0.00 0.00 0.00 66 1006.1
20260901160106 67 126 1.7 4.3 0.00 0.00 0.00 67 1006.1
20260901155605 67 151 0.9 5.2 0.00 0.00 0.00 67 1006.1
20260901155105 66 197 1.7 5.2 0.00 0.00 0.00 68 1006.1
20260901154605 65 288 1.7 4.3 0.00 0.00 0.00 69 1005.8
20260901154104 65 222 0.9 6.1 0.00 0.00 0.00 69 1006.1
20260901153607 65 230 1.7 7.0 0.00 0.00 0.00 70 1006.0
20260901153104 65 268 1.7 5.2 0.00 0.00 0.00 71 1005.8
20260901152604 64 201 1.7 4.3 0.00 0.00 0.00 71 1005.8
20260901152104 64 169 0.9 6.1 0.00 0.00 0.00 72 1005.8
20260901150605 63 116 1.7 5.2 0.00 0.00 0.00 74 1005.4
20260901150104 63 90 0.0 2.6 0.00 0.00 0.00 74 1005.8
20260901145604 63 131 0.9 6.1 0.00 0.00 0.00 74 1005.4
20260901145104 63 210 0.9 6.1 0.00 0.00 0.00 75 1005.4
20260901143606 62 224 0.0 2.6 0.00 0.00 0.00 75 1005.4
20260901143105 62 116 0.9 5.2 0.00 0.00 0.00 76 1005.4
20260901142604 62 157 0.9 4.3 0.00 0.00 0.00 76 1005.1
20260901142104 62 136 0.9 1.7 0.00 0.00 0.00 76 1005.1
20260901141604 62 157 0.0 1.7 0.00 0.00 0.00 76 1005.1
20260901141104 62 180 0.9 2.6 0.00 0.00 0.00 76 1004.7
20260901140605 62 155 0.0 2.6 0.00 0.00 0.00 76 1005.1
20260901140104 61 157 0.9 4.3 0.00 0.00 0.00 76 1005.0
20260901135604 61 155 0.9 2.6 0.00 0.00 0.00 75 1004.7
20260901134605 62 114 0.0 2.6 0.00 0.00 0.00 75 1004.7
20260901134105 62 135 0.9 4.3 0.00 0.00 0.00 75 1004.7
20260901133604 62 154 0.9 4.3 0.00 0.00 0.00 75 1004.7
20260901133104 62 79 0.9 2.6 0.00 0.00 0.00 75 1004.7
20260901132104 62 163 0.9 4.3 0.00 0.00 0.00 75 1004.7
20260901131604 62 96 0.0 2.6 0.00 0.00 0.00 75 1004.4
20260901131106 62 180 0.0 2.6 0.00 0.00 0.00 76 1004.4
20260901130604 61 117 0.9 2.6 0.00 0.00 0.00 76 1004.4
20260901130104 61 137 0.9 5.2 0.00 0.00 0.00 77 1004.4
20260901125605 61 127 0.9 4.3 0.00 0.00 0.00 78 1004.4
20260901125104 61 155 0.9 2.6 0.00 0.00 0.00 78 1004.4
20260901124604 61 157 0.9 1.7 0.00 0.00 0.00 78 1004.1
20260901123604 61 134 0.9 2.6 0.00 0.00 0.00 79 1004.4
20260901123104 61 202 0.0 2.6 0.00 0.00 0.00 79 1004.1
20260901122104 61 174 0.0 5.2 0.00 0.00 0.00 79 1004.1
20260901121104 61 165 1.7 5.2 0.00 0.00 0.00 79 1003.8
20260901120604 61 129 0.9 1.7 0.00 0.00 0.00 79 1004.0
20260901120105 61 157 0.0 5.2 0.00 0.00 0.00 79 1004.1
20260901115604 61 162 0.9 5.2 0.00 0.00 0.00 79 1004.1
20260901114604 61 174 0.9 4.3 0.00 0.00 0.00 79 1004.1
20260901114104 61 225 0.0 4.3 0.00 0.00 0.00 79 1004.4
20260901113603 61 159 0.9 4.3 0.00 0.00 0.00 78 1004.4
20260901113104 61 121 1.7 2.6 0.00 0.00 0.00 78 1004.4
20260901112604 61 204 0.9 4.3 0.00 0.00 0.00 78 1004.4
20260901112105 61 157 0.9 4.3 0.00 0.00 0.00 78 1004.1
20260901111604 61 92 0.9 2.6 0.00 0.00 0.00 78 1004.4
20260901111104 61 142 0.9 7.0 0.00 0.00 0.00 78 1004.4
20260901110104 61 154 0.9 1.7 0.00 0.00 0.00 79 1004.4
20260901105605 61 122 0.9 4.3 0.00 0.00 0.00 79 1004.1
20260901105104 61 149 0.9 2.6 0.00 0.00 0.00 80 1004.4
20260901104604 61 131 1.7 8.7 0.00 0.00 0.00 80 1004.1
20260901104104 60 165 0.9 2.6 0.00 0.00 0.00 80 1004.1
20260901103604 60 337 0.9 4.3 0.00 0.00 0.00 79 1004.1
20260901103103 61 191 1.7 5.2 0.00 0.00 0.00 78 1004.1
20260901102103 61 157 0.9 1.7 0.00 0.00 0.00 77 1004.1
20260901101604 61 176 0.9 2.6 0.00 0.00 0.00 76 1004.1
20260901101104 61 157 0.9 5.2 0.00 0.00 0.00 76 1004.1
20260901100604 61 122 0.0 2.6 0.00 0.00 0.00 75 1003.7
20260901100104 62 184 1.7 5.2 0.00 0.00 0.00 74 1003.7
20260901095604 62 100 0.9 2.6 0.00 0.00 0.00 74 1003.7
20260901095105 62 84 0.9 2.6 0.00 0.00 0.00 74 1003.7
20260901094604 62 148 1.7 7.0 0.00 0.00 0.00 73 1003.7
20260901093604 62 101 1.7 5.2 0.00 0.00 0.00 73 1003.7
20260901093104 62 135 0.9 5.2 0.00 0.00 0.00 73 1004.1
20260901092604 62 163 1.7 5.2 0.00 0.00 0.00 73 1004.1
20260901092104 62 114 1.7 4.3 0.00 0.00 0.00 73 1004.1
20260901091603 62 144 0.9 2.6 0.00 0.00 0.00 74 1003.7
20260901091104 62 193 0.9 7.0 0.00 0.00 0.00 74 1004.1
20260901090603 62 157 1.7 8.7 0.00 0.00 0.00 74 1004.1
20260901085603 62 155 2.6 5.2 0.00 0.00 0.00 74 1004.1
20260901085104 62 128 0.9 4.3 0.00 0.00 0.00 74 1004.1
20260901084604 62 147 1.7 4.3 0.00 0.00 0.00 74 1004.1
20260901084104 62 135 1.7 5.2 0.00 0.00 0.00 74 1004.1
20260901083604 62 141 1.7 6.1 0.00 0.00 0.00 74 1004.1
20260901083104 62 159 1.7 5.2 0.00 0.00 0.00 74 1004.1
20260901082606 62 137 0.9 4.3 0.00 0.00 0.00 74 1004.1
20260901082106 62 159 2.6 6.1 0.00 0.00 0.00 74 1004.1
20260901081604 62 134 0.9 2.6 0.00 0.00 0.00 74 1004.1
20260901081104 62 176 1.7 4.3 0.00 0.00 0.00 74 1004.1
20260901080105 62 126 1.7 6.1 0.00 0.00 0.00 74 1004.1
20260901075604 62 162 1.7 4.3 0.00 0.00 0.00 74 1004.1
20260901074604 62 136 0.9 5.2 0.00 0.00 0.00 74 1004.1
20260901074104 62 138 1.7 4.3 0.00 0.00 0.00 74 1004.1
20260901073603 62 123 1.7 5.2 0.00 0.00 0.00 74 1003.7
20260901073103 62 161 1.7 6.1 0.00 0.00 0.00 74 1004.1
20260901072604 62 315 1.7 6.1 0.00 0.00 0.00 74 1004.1
20260901072103 62 134 1.7 5.2 0.00 0.00 0.00 74 1004.1
20260901071603 62 164 1.7 4.3 0.00 0.00 0.00 73 1004.1
20260901071106 62 142 1.7 5.2 0.00 0.00 0.00 73 1003.7
20260901070604 62 132 1.7 4.3 0.00 0.00 0.00 73 1003.7
20260901070106 62 0 1.7 2.6 0.00 0.00 0.00 72 1004.0
20260901065606 62 125 1.7 5.2 0.00 0.00 0.00 72 1004.1
20260901065106 62 148 1.7 7.0 0.00 0.00 0.00 72 1004.1
20260901064605 62 127 1.7 6.1 0.00 0.00 0.00 73 1004.1
20260901064105 62 134 1.7 5.2 0.00 0.00 0.00 73 1004.0
20260901063607 62 166 0.9 7.0 0.00 0.00 0.00 73 1004.1
20260901062608 62 149 0.9 5.2 0.00 0.00 0.00 73 1004.1
20260901062106 62 117 1.7 4.3 0.00 0.00 0.00 73 1004.0
20260901061605 62 152 1.7 5.2 0.00 0.00 0.00 73 1003.7
20260901061106 62 163 1.7 5.2 0.00 0.00 0.00 74 1004.1
20260901060606 61 148 1.7 4.3 0.00 0.00 0.00 74 1004.1
20260901060107 61 158 1.7 4.3 0.00 0.00 0.00 74 1004.1
20260901055605 61 129 1.7 2.6 0.00 0.00 0.00 75 1004.1
20260901054605 61 219 1.7 5.2 0.00 0.00 0.00 75 1004.1
20260901054105 61 191 1.7 5.2 0.00 0.00 0.00 75 1004.1
20260901053606 61 134 0.9 2.6 0.00 0.00 0.00 75 1004.1
20260901053106 61 170 0.0 4.3 0.00 0.00 0.00 75 1004.1
20260901052606 61 174 2.6 6.1 0.00 0.00 0.00 75 1004.1
20260901052106 61 120 0.0 5.2 0.00 0.00 0.00 75 1004.1
20260901051106 61 181 1.7 4.3 0.00 0.00 0.00 74 1004.1
20260901050605 61 243 0.9 2.6 0.00 0.00 0.00 74 1004.1
20260901050106 61 247 0.9 4.3 0.00 0.00 0.00 73 1004.1
20260901045605 61 157 0.9 1.7 0.00 0.00 0.00 73 1004.1
20260901045107 61 225 0.0 1.7 0.00 0.00 0.00 73 1004.1
20260901044605 61 247 0.0 5.2 0.00 0.00 0.00 73 1004.1
20260901044105 62 228 0.9 7.0 0.00 0.00 0.00 73 1004.1
20260901043605 62 221 0.0 2.6 0.00 0.00 0.00 73 1004.1
20260901043105 62 292 0.9 4.3 0.00 0.00 0.00 73 1004.1
20260901042607 62 157 1.7 4.3 0.00 0.00 0.00 73 1004.1
20260901042106 62 212 0.0 1.7 0.00 0.00 0.00 73 1004.1
20260901041605 62 231 0.9 6.1 0.00 0.00 0.00 73 1004.1
20260901041106 62 185 1.7 7.8 0.00 0.00 0.00 73 1004.1
20260901040605 62 219 0.9 5.2 0.00 0.00 0.00 73 1003.7
20260901040106 62 225 0.9 1.7 0.00 0.00 0.00 73 1003.7
20260901035605 62 173 0.9 5.2 0.00 0.00 0.00 73 1003.7
20260901034606 62 212 1.7 4.3 0.00 0.00 0.00 73 1003.7
20260901034106 62 221 1.7 5.2 0.00 0.00 0.00 73 1003.4
20260901033605 62 142 1.7 6.1 0.00 0.00 0.00 73 1003.4
20260901033105 62 276 1.7 4.3 0.00 0.00 0.00 73 1003.4
20260901032605 63 224 1.7 4.3 0.00 0.00 0.00 72 1003.4
20260901031606 63 190 0.9 4.3 0.00 0.00 0.00 72 1003.4
20260901031105 63 159 1.7 5.2 0.00 0.00 0.00 72 1003.4
20260901030606 63 90 0.9 7.0 0.00 0.00 0.00 72 1003.1
20260901030106 63 225 0.9 6.1 0.00 0.00 0.00 72 1003.0
20260901025605 63 228 0.9 5.2 0.00 0.00 0.00 72 1003.1
20260901025106 63 177 0.9 2.6 0.00 0.00 0.00 72 1003.4
20260901024605 63 219 1.7 6.1 0.00 0.00 0.00 71 1003.3
20260901024107 63 225 1.7 5.2 0.00 0.00 0.00 71 1003.4
20260901023605 63 198 0.9 8.7 0.00 0.00 0.00 70 1003.4
20260901023105 64 119 2.6 7.0 0.00 0.00 0.00 70 1003.0
20260901022606 64 164 1.7 7.0 0.00 0.00 0.00 70 1003.0
20260901022106 64 213 2.6 7.0 0.00 0.00 0.00 70 1003.0
20260901021105 64 163 0.9 4.3 0.00 0.00 0.00 70 1003.0
20260901020605 64 153 2.6 7.0 0.00 0.00 0.00 69 1003.4
20260901015605 65 204 1.7 6.1 0.00 0.00 0.00 69 1003.0
20260901015107 65 200 0.9 2.6 0.00 0.00 0.00 69 1003.0
20260901013607 66 131 1.7 8.7 0.00 0.00 0.00 68 1003.0
20260901013105 66 142 1.7 7.0 0.00 0.00 0.00 66 1002.7
20260901012605 67 138 1.7 10.4 0.00 0.00 0.00 65 1002.8
20260901012105 67 137 2.6 6.1 0.00 0.00 0.00 65 1003.0
20260901011105 67 182 1.7 7.0 0.00 0.00 0.00 66 1003.0
20260901010605 67 165 0.9 6.1 0.00 0.00 0.00 65 1003.0
20260901010106 68 251 0.9 8.7 0.00 0.00 0.00 64 1002.7
20260901005105 69 124 1.7 7.8 0.00 0.00 0.00 62 1002.7
20260901004605 69 104 1.7 6.1 0.00 0.00 0.00 62 1002.8
20260901004105 69 308 1.7 7.8 0.00 0.00 0.00 62 1002.7
20260901003605 69 178 1.7 6.1 0.00 0.00 0.00 62 1003.0
20260901003105 69 220 1.7 7.0 0.00 0.00 0.00 62 1003.0
20260901002605 69 163 1.7 7.8 0.00 0.00 0.00 62 1002.8
20260901002106 69 135 1.7 8.7 0.00 0.00 0.00 62 1003.0
20260901001605 69 145 1.7 6.1 0.00 0.00 0.00 63 1003.0
20260901000605 69 186 1.7 7.0 0.00 0.00 0.00 62 1002.8
20260901000105 69 242 2.6 7.8 0.00 0.00 0.00 63 1003.0
20260831235605 69 189 2.6 7.8 0.00 0.00 0.00 62 1003.0
20260831235105 69 199 2.6 6.1 0.00 0.00 0.00 61 1003.0
20260831234606 70 177 2.6 8.7 0.00 0.00 0.00 60 1003.0
20260831234105 71 221 4.3 11.3 0.00 0.00 0.00 60 1003.0
20260831233605 71 148 2.6 5.2 0.00 0.00 0.00 61 1002.7
20260831232605 70 119 2.6 7.8 0.00 0.00 0.00 60 1002.7
20260831232106 71 216 2.6 7.8 0.00 0.00 0.00 59 1003.0
20260831231606 71 151 2.6 7.8 0.00 0.00 0.00 59 1003.0
20260831231105 71 113 1.7 7.0 0.00 0.00 0.00 59 1003.0
20260831230105 71 166 2.6 6.1 0.00 0.00 0.00 60 1003.0
20260831225105 71 150 2.6 7.8 0.00 0.00 0.00 59 1003.3
20260831224605 71 194 2.6 10.4 0.00 0.00 0.00 59 1003.3
20260831224105 71 212 1.7 8.7 0.00 0.00 0.00 60 1003.0
20260831223604 70 254 2.6 6.1 0.00 0.00 0.00 61 1003.0
20260831223105 70 43 2.6 7.0 0.00 0.00 0.00 61 1003.4
20260831222605 70 140 3.5 8.7 0.00 0.00 0.00 61 1003.4
20260831222105 70 216 2.6 6.1 0.00 0.00 0.00 62 1003.4
20260831221604 69 239 2.6 8.7 0.00 0.00 0.00 62 1003.7
20260831220606 69 223 2.6 7.0 0.00 0.00 0.00 62 1003.4
20260831220106 69 232 3.5 7.0 0.00 0.00 0.00 63 1003.4
20260831215606 69 213 2.6 6.1 0.00 0.00 0.00 63 1003.7
20260831214606 68 238 2.6 8.7 0.00 0.00 0.00 64 1003.7
20260831214105 68 215 4.3 10.4 0.00 0.00 0.00 64 1003.7
20260831213604 68 239 4.3 11.3 0.00 0.00 0.00 64 1003.8
20260831213105 68 268 4.3 11.3 0.00 0.00 0.00 63 1004.0
20260831212604 69 247 5.2 11.3 0.00 0.00 0.00 62 1004.0
20260831211604 70 218 5.2 10.4 0.00 0.00 0.00 61 1003.7
20260831211105 70 231 4.3 8.7 0.00 0.00 0.00 60 1003.8
20260831210105 70 155 2.6 7.8 0.00 0.00 0.00 60 1003.7
20260831205604 70 177 3.5 13.9 0.00 0.00 0.00 60 1004.0
20260831204606 70 145 4.3 13.0 0.00 0.00 0.00 61 1004.0
20260831204105 69 162 4.3 10.4 0.00 0.00 0.00 62 1003.8
20260831203605 69 139 2.6 8.7 0.00 0.00 0.00 62 1004.0
20260831203104 69 161 4.3 11.3 0.00 0.00 0.00 62 1003.8
20260831202105 68 141 4.3 10.4 0.00 0.00 0.00 62 1003.7
20260831201605 68 135 4.3 10.4 0.00 0.00 0.00 62 1003.7
20260831201105 68 142 4.3 11.3 0.00 0.00 0.00 62 1003.7
20260831200605 68 136 3.5 14.8 0.00 0.00 0.00 63 1003.7
20260831200105 68 148 4.3 10.4 0.00 0.00 0.00 62 1004.0
20260831195606 69 135 2.6 10.4 0.00 0.00 0.00 63 1003.8
20260831195105 68 162 2.6 7.0 0.00 0.00 0.00 64 1003.8
20260831194605 67 130 2.6 6.1 0.00 0.00 0.00 65 1004.1
20260831194105 67 179 2.6 7.8 0.00 0.00 0.00 65 1004.1
20260831193604 67 143 5.2 13.0 0.00 0.00 0.00 65 1004.1
20260831193105 67 137 4.3 8.7 0.00 0.00 0.00 65 1004.1
20260831192605 67 135 4.3 11.3 0.00 0.00 0.00 66 1004.1
20260831192105 67 146 5.2 13.0 0.00 0.00 0.00 66 1004.3
20260831191606 67 134 3.5 8.7 0.00 0.00 0.00 66 1004.3
20260831190604 66 134 2.6 11.3 0.00 0.00 0.00 66 1004.1
20260831190104 66 145 4.3 13.9 0.00 0.00 0.00 66 1004.1
20260831185605 66 142 2.6 8.7 0.00 0.00 0.00 67 1004.1
20260831185105 66 127 4.3 8.7 0.00 0.00 0.00 67 1004.1
20260831184604 66 127 5.2 13.0 0.00 0.00 0.00 68 1004.1
20260831184105 66 142 5.2 11.3 0.00 0.00 0.00 67 1004.4
20260831183106 66 135 4.3 13.0 0.00 0.00 0.00 68 1004.4
20260831182604 65 144 4.3 10.4 0.00 0.00 0.00 68 1004.4
20260831182106 65 131 4.3 11.3 0.00 0.00 0.00 69 1004.4
20260831181605 65 156 5.2 12.2 0.00 0.00 0.00 68 1004.1
20260831180606 65 134 4.3 8.7 0.00 0.00 0.00 69 1004.1
20260831180106 65 151 3.5 10.4 0.00 0.00 0.00 69 1004.3
20260831175605 65 139 4.3 8.7 0.00 0.00 0.00 69 1004.1
20260831175104 65 137 4.3 10.4 0.00 0.00 0.00 69 1004.1
20260831174105 65 151 6.1 13.9 0.00 0.00 0.00 70 1004.1
20260831173105 64 145 2.6 6.1 0.00 0.00 0.00 72 1004.1
20260831172605 63 130 2.6 7.0 0.00 0.00 0.00 73 1004.1
20260831172105 63 134 2.6 13.0 0.00 0.00 0.00 73 1004.1
20260831171105 62 154 5.2 13.0 0.00 0.00 0.00 75 1004.1
20260831170605 62 138 4.3 12.2 0.00 0.00 0.00 76 1004.1
20260831170105 61 153 4.3 10.4 0.00 0.00 0.00 77 1003.8
20260831165604 61 157 3.5 10.4 0.00 0.00 0.00 77 1004.1
20260831165105 61 132 4.3 12.2 0.00 0.00 0.00 77 1004.1
20260831164604 61 124 4.3 7.8 0.00 0.00 0.00 78 1003.8
20260831164104 60 145 3.5 8.7 0.00 0.00 0.00 79 1004.1
20260831163105 60 155 3.5 12.2 0.00 0.00 0.00 79 1003.8
20260831162605 60 128 2.6 8.7 0.00 0.00 0.00 79 1004.0
20260831162105 60 144 4.3 8.7 0.00 0.00 0.00 80 1003.8
20260831161605 60 148 4.3 10.4 0.00 0.00 0.00 80 1003.7